Tracking 35274 objects as of 11-Sep-2026
HD Live streaming from Space Station
objects crossing your sky now

COSMOS 1823 DEB


COSMOS 1823 DEB is no longer on orbit


NORAD ID: 20003
Int'l Code: 1987-020CX
Launch date: February 20, 1987
Source: Commonwealth of Independent States (former USSR) (CIS)
Launch site: PLESETSK MISSILE AND SPACE COMPLEX (PKMTR)
Decay date: 1990-01-28

Note: This is SATELLITE DEBRIS
Your satellite tracking list
Your tracking list is empty




NASA's NSSDC Master Catalog

Two Line Element Set (TLE):
1 20003U 87020 CX 90021.32194371  .01695119 +00000-0 +0659001 0  9996
2 20003 073.3039 146.9623 0137615 316.9665 045.6632 14.24771417006383
Source of the keplerian elements: AFSPC